STARLINK-4720, 53800

Orbit data source: Space-Track

STARLINK-4720, 53800 is a payload satellite owned by SpaceX/Seattle (US) in LEO that was launched on Sun, 11 Sep 2022 UTC via an FALCON 9 launch vehicle from the Air Force Eastern Test Range (AFETR). Payload-class satellites include a variety of spacecraft equipped with specific instruments for various scientific and technological missions. These include communications satellites like Starlink; space stations such as the ISS; scientific satellites like the Hubble; Earth observation satellites from companies like Planet Labs, Umbra, and HawkEye 360; GPS; miniature CubeSats for education and research; and military/defense satellites.

Loading next visibility...
Identifier
53800, 2022-111AD
Orbit
LEO
Country
Flag of USUS
Related business
Manufacturer
SpaceX/Seattle
Mission
Operational Commercial Communications
Bus & Motor
STARLINK, Unknown motor
Mass
305 kg wet, ~290 kg dry
Launch date (UTC)
2022-09-11 (3 years ago)
Launch vehicle
FALCON 9
Launch site
Air Force Eastern Test Range (AFETR)
Object type
Payload
Rocket body
Debris
Shape & HBR
Box + 1 Pan, 10.1 m
Radar Cross Section
13.562 m², Large (>1 m²)

Expand to show TLE details & history
Last TLE update: 7 hours ago

TLE from 7 hours ago
0 STARLINK-4720
1 53800U 22111AD  25347.00009259  .01032352  00000-0  38149-1 0  9991
2 53800  53.2161 292.6788 0001364  97.5850  55.7484 15.24380589  5751
Epoch: 2025-12-13T00:00Z
TLE epoch observation values (Epoch: 2025-12-13T00:00:07.999Z)
Latitude
21.10438°
Longitude
14.03518°
Altitude
492.687 km
Speed
7.622 km/s
True Right ascension
06h 24m 00s
True Declination
20° 59' 05"
Sunlit
Object was in full shadow at epoch
Visualization orbit readout
Latitude
Unknown
Longitude
Unknown
Altitude
Unknown
Speed
Unknown
Apparent Right ascension
Unknown
Apparent Declination
Unknown
Sunlit
N/A
Visualization observer readout
Local Sidereal Time
05:57:50
Azimuth
Unknown
Elevation
Unknown
Doppler factor
Unknown
Orbital elements
Apogee altitude
493.83 km
Perigee altitude
491.956 km
Semi-major axis
6,871.03 km
Eccentricity
0.00014
Inclination
53.2161°
RAAN
292.6788°
Arg. of periapsis
97.585°
True anomaly
55.76132°
Mean anomaly
55.7484°
Eccentric anomaly
55.75486°
Mean motion
3.81075 °/min
Orbital period
94.47 mins
BSTAR
0.038149
Loading maneuver chart data...
Computing Atmospheric mass density...
Loading historical data...
Loading historical data...
Loading historical data...
Loading historical data...
Loading historical data...
Loading historical data...
Loading historical data...

Documentation

Showing up to 5 results
|